星链-31954 (STARLINK-31954 )

导读 | 豆包AI

STARLINK-31954是美国SpaceX星链星座的一员,于2024年6月23日发射升空。作为星链互联网卫星网络的组成部分,它旨在为全球提供高速低延迟宽带互联网服务,尤其覆盖偏远地区。该卫星延续星链批量部署模式,依托SpaceX可重复使用火箭技术发射,助力星链完成全球卫星互联网组网建设。

Basic Information
目录编号:
60102
目录名称:
STARLINK-31954
国际标识:
2024-117M
轨道中心:
EARTH
卫星名称:
星链-31954
卫星全名:
星链-31954 (STARLINK-31954 )
卫星状态:
在轨 (已飞行677 天)
发射日期:
2024-06-23 UTC
国别 :
美国 (US)
星等 :
--
Orbit Information
数据来源 国际轨道数据 AOE轨道数据
星历时间 2026-04-30T19:36:30+0800
15小时前
查看轨道信息
2026-04-30T15:00:00+0800
20小时前
查看轨道信息
半长轴 6853.383km 6853.372km
偏心率 0.000116 0.000149
轨道倾角 53.160° 53.158°
近地点辐角 87.116° 79.254°
升交点赤经 156.739° 157.630°
平近点角 272.997° 302.526°
近地点 474.451km 474.213km
远地点 476.041km 476.257km
周期 94.106分钟 94.106分钟
每日圈数 15.301898 15.301934
Detailed Information
固有亮度:
5
最大亮度:
1.5
卫星平台:
Starlink v2.0 mini
覆盖范围:
全球
运营商:
太空探索技术公司
运营商所在国:
美国
制造商(研发单位):
太空探索技术公司
制造商所在国:
美国
使用方式:
暂无
Satellite Introduction
星链(Starlink)计划是由太空探索技术公司(SpaceX)提出的一个巨型低轨卫星互联网星座项目,计划在2019年至2024年间在太空搭建由约1.2万颗卫星组成的“星链”网络,其中1584颗将部署在地球上空550千米处的近地轨道,并从2020年开始工作。该卫星仍在工作。
2D Orbit Map
3D Orbit Map
Orbit Altitude Analysis Chart
Orbit Inclination Analysis Chart
Orbit Comprehensive Analysis Chart
View Comprehensive Chart